Location: Unspecified
(0.0000°N, 0.0000°E)
Time: 03:35:04
(UTC+00:00)

N. Korean satellite - Pass Details

Date: 15 October 2017
Orbit: 461 x 513 km, 97.2° (Epoch: 15 December)

Event Time Altitude Azimuth Distance (km) Brightness Sun altitude
Rises 18:07:07 0° 157° (SSE) 2,602 10.1 -5.3°
Reaches altitude 10° 18:09:19 10° 150° (SSE) 1,707 9.1 -5.8°
Maximum altitude 18:12:46 40° 80° (E) 746 7.0 -6.7°
Drops below altitude 10° 18:16:09 10° 9° (N) 1,670 9.1 -7.5°
Sets 18:18:16 0° 1° (N) 2,538 10.1 -8.0°
